Regional Weather Roundup
Issued by NWS

Home | Current Version | Previous Version | Graphics & Text | Print | Product List | Glossary On
Versions: 1 2 3 4 5 6 7 8 9 10 11 12 13 14 15 16 17 18 19 20 21 22 23 24 25 26 27
000
ASUS45 KCYS 231210
RWRWY

WYOMING REGIONAL WEATHER ROUNDUP
NATIONAL WEATHER SERVICE CHEYENNE WY
600 AM MDT SUN JUL 23 2017

NOTE:  "FAIR" INDICATES FEW OR NO CLOUDS BELOW 12,000 FEET
WITH NO SIGNIFICANT WEATHER AND/OR OBSTRUCTIONS TO VISIBILITY.

WYZ001-231300-
YELLOWSTONE NATIONAL PARK

CITY           SKY/WX    TMP DP  RH WIND       PRES   REMARKS
LK YELLOWSTONE   N/A     38  36  92 CALM      30.40S
6HR MIN TEMP:  38; 6HR MAX TEMP:  48;

W YELLOWSTONE  NOT AVBL

$$
WYZ002>013-054>058-071-098>099-231300-
NORTHERN WYOMING

CITY           SKY/WX    TMP DP  RH WIND       PRES   REMARKS
JACKSON        FAIR      43  37  81 CALM      30.32R
CODY           FAIR      62  36  37 SW6       30.19R
GREYBULL       FAIR      56  42  59 CALM      30.10S
6HR MIN TEMP:  56; 6HR MAX TEMP:  73;

WORLAND        FAIR      52  35  52 CALM      30.12R
6HR MIN TEMP:  52; 6HR MAX TEMP:  67;

SHERIDAN       FAIR      51  42  71 CALM      30.11S
6HR MIN TEMP:  49; 6HR MAX TEMP:  61;

BUFFALO        FAIR      60  33  36 W5        30.17S
6HR MIN TEMP:  60; 6HR MAX TEMP:  68;

GILLETTE       FAIR      61  40  45 E3        30.13F
6HR MIN TEMP:  54; 6HR MAX TEMP:  64;

HULETT         FAIR      63  39  42 CALM      30.16R
NEWCASTLE      FAIR      59  37  44 CALM      30.15S

$$
WYZ014>020-022>026-101>103-231300-
CENTRAL WYOMING

CITY           SKY/WX    TMP DP  RH WIND       PRES   REMARKS
BIG PINEY      FAIR      44  35  70 NE5       30.32R
6HR MIN TEMP:  43; 6HR MAX TEMP:  56;

PINEDALE       FAIR      43  37  81 NW6       30.33R
DUBOIS         FAIR      46  32  57 NW13      30.34S
LANDER         FAIR      64  33  31 W12       30.23R
6HR MIN TEMP:  63; 6HR MAX TEMP:  72;

RIVERTON       FAIR      58  39  49 NW13      30.20S
6HR MIN TEMP:  57; 6HR MAX TEMP:  74;

CASPER         FAIR      53  37  54 W5        30.21R
6HR MIN TEMP:  50; 6HR MAX TEMP:  62;

DOUGLAS        FAIR      54  51  90 NW3       30.19R
6HR MIN TEMP:  53; 6HR MAX TEMP:  65;


$$
WYZ021-027>030-104>119-231300-
SOUTHERN WYOMING

CITY           SKY/WX    TMP DP  RH WIND       PRES   REMARKS
EVANSTON       FAIR      58  33  39 SE5       30.30S
6HR MIN TEMP:  56; 6HR MAX TEMP:  70;

KEMMERER         N/A     48  32  53 N13       30.33R
FORT BRIDGER   FAIR      59  30  33 W9        30.32S
ROCK SPRINGS   FAIR      62  32  32 CALM      30.28R
6HR MIN TEMP:  59; 6HR MAX TEMP:  72;

RAWLINS        FAIR      51  33  50 N5        30.30R
6HR MIN TEMP:  49; 6HR MAX TEMP:  60;

SARATOGA       FAIR      54  37  54 SE8       30.32R
LARAMIE        FAIR      49  44  83 S6        30.34R
6HR MIN TEMP:  47; 6HR MAX TEMP:  59;

CHEYENNE       FAIR      54  49  83 W9        30.25R
6HR MIN TEMP:  54; 6HR MAX TEMP:  65;

TORRINGTON     FAIR      60  52  74 E6        30.12R
6HR MIN TEMP:  60; 6HR MAX TEMP:  67;

PINE BLUFFS    FAIR      52  50  93 W3        30.21R

$$




USA.gov is the U.S. government's official web portal to all federal, state and local government web resources and services.